TimeCST,TemperatureF,Dew PointF,Humidity,Sea Level PressureIn,VisibilityMPH,Wind Direction,Wind SpeedMPH,Gust SpeedMPH,PrecipitationIn,Events,Conditions,WindDirDegrees,DateUTC
12:09 AM,41.0,26.6,57,29.92,10.0,SSE,17.3,23.0,N/A,,Overcast,160,2013-11-20 06:09:00
12:29 AM,41.0,26.6,57,29.91,10.0,South,17.3,27.6,N/A,,Overcast,170,2013-11-20 06:29:00
12:48 AM,41.0,26.6,57,29.91,10.0,South,16.1,24.2,N/A,,Overcast,170,2013-11-20 06:48:00
1:09 AM,41.0,26.6,57,29.91,10.0,South,16.1,23.0,N/A,,Overcast,170,2013-11-20 07:09:00
1:29 AM,41.0,26.6,57,29.91,10.0,South,16.1,20.7,N/A,,Overcast,170,2013-11-20 07:29:00
1:48 AM,41.0,26.6,57,29.92,10.0,South,17.3,23.0,N/A,,Overcast,170,2013-11-20 07:48:00
2:09 AM,41.0,26.6,57,29.92,10.0,South,13.8,18.4,N/A,,Overcast,170,2013-11-20 08:09:00
2:29 AM,42.8,26.6,53,29.92,10.0,SSE,13.8,20.7,N/A,,Overcast,160,2013-11-20 08:29:00
2:48 AM,42.8,26.6,53,29.92,10.0,South,15.0,21.9,N/A,,Overcast,170,2013-11-20 08:48:00
3:09 AM,42.8,26.6,53,29.91,10.0,SSE,16.1,20.7,N/A,,Overcast,160,2013-11-20 09:09:00
3:28 AM,41.0,26.6,57,29.91,10.0,South,13.8,23.0,N/A,,Overcast,170,2013-11-20 09:28:00
3:49 AM,39.2,26.6,61,29.90,10.0,SSE,13.8,20.7,N/A,,Overcast,160,2013-11-20 09:49:00
4:09 AM,39.2,26.6,61,29.89,10.0,SSE,15.0,19.6,N/A,,Overcast,160,2013-11-20 10:09:00
4:28 AM,39.2,26.6,61,29.89,10.0,SSE,15.0,20.7,N/A,,Overcast,160,2013-11-20 10:28:00
4:49 AM,39.2,26.6,61,29.89,10.0,SSE,13.8,18.4,N/A,,Overcast,160,2013-11-20 10:49:00
5:09 AM,39.2,26.6,61,29.89,10.0,SSE,12.7,18.4,N/A,,Overcast,160,2013-11-20 11:09:00
5:28 AM,39.2,26.6,61,29.89,-9999.0,SSE,15.0,19.6,N/A,,Overcast,160,2013-11-20 11:28:00
5:49 AM,39.2,26.6,61,29.89,10.0,North,-9999.0,-,N/A,,Overcast,0,2013-11-20 11:49:00
6:09 AM,39.2,26.6,61,29.89,10.0,SSE,12.7,18.4,N/A,,Overcast,160,2013-11-20 12:09:00
6:28 AM,39.2,26.6,61,29.89,10.0,SSE,13.8,19.6,N/A,,Overcast,150,2013-11-20 12:28:00
6:49 AM,39.2,24.8,56,29.89,10.0,SSE,13.8,19.6,N/A,,Overcast,160,2013-11-20 12:49:00
7:09 AM,39.2,24.8,56,29.90,10.0,SSE,10.4,17.3,N/A,,Overcast,160,2013-11-20 13:09:00
7:28 AM,39.2,24.8,56,29.90,10.0,SSE,10.4,16.1,N/A,,Overcast,160,2013-11-20 13:28:00
7:49 AM,41.0,24.8,53,29.91,10.0,SSE,12.7,18.4,N/A,,Overcast,160,2013-11-20 13:49:00
8:09 AM,39.2,26.6,61,29.91,10.0,SSE,15.0,21.9,N/A,,Overcast,160,2013-11-20 14:09:00
8:28 AM,39.2,26.6,61,29.92,10.0,South,13.8,18.4,N/A,,Overcast,170,2013-11-20 14:28:00
8:49 AM,39.2,26.6,61,29.93,10.0,SSE,12.7,20.7,N/A,,Overcast,160,2013-11-20 14:49:00
9:09 AM,39.2,26.6,61,29.93,10.0,SSE,11.5,20.7,N/A,,Overcast,160,2013-11-20 15:09:00
9:29 AM,39.2,28.4,65,29.93,10.0,SSE,12.7,17.3,N/A,,Overcast,160,2013-11-20 15:29:00
9:49 AM,39.2,28.4,65,29.93,10.0,South,15.0,18.4,N/A,,Overcast,170,2013-11-20 15:49:00
10:08 AM,39.2,28.4,65,29.94,10.0,South,13.8,18.4,N/A,,Overcast,170,2013-11-20 16:08:00
10:29 AM,41.0,28.4,61,29.94,10.0,SSE,12.7,18.4,N/A,,Overcast,160,2013-11-20 16:29:00
10:49 AM,41.0,28.4,61,29.93,10.0,South,16.1,24.2,N/A,,Overcast,170,2013-11-20 16:49:00
11:08 AM,41.0,28.4,61,29.93,10.0,South,12.7,17.3,N/A,,Overcast,170,2013-11-20 17:08:00
11:29 AM,41.0,28.4,61,29.93,10.0,South,10.4,20.7,N/A,,Overcast,170,2013-11-20 17:29:00
11:49 AM,39.2,28.4,65,29.92,10.0,South,13.8,17.3,N/A,,Overcast,170,2013-11-20 17:49:00
12:08 PM,39.2,30.2,70,29.92,10.0,SSE,11.5,17.3,N/A,,Overcast,160,2013-11-20 18:08:00
12:29 PM,39.2,30.2,70,29.92,10.0,SSE,9.2,-,N/A,,Overcast,160,2013-11-20 18:29:00
12:49 PM,39.2,30.2,70,29.92,10.0,South,10.4,-,N/A,,Overcast,170,2013-11-20 18:49:00
1:08 PM,39.2,30.2,70,29.91,10.0,SSE,9.2,16.1,N/A,,Overcast,150,2013-11-20 19:08:00
1:29 PM,39.2,30.2,70,29.91,10.0,SSE,10.4,-,N/A,,Overcast,150,2013-11-20 19:29:00
1:49 PM,39.2,30.2,70,29.91,10.0,SSE,10.4,-,N/A,,Overcast,150,2013-11-20 19:49:00
2:09 PM,39.2,32.0,75,29.91,10.0,SE,9.2,-,N/A,,Overcast,140,2013-11-20 20:09:00
2:29 PM,39.2,32.0,75,29.91,10.0,SSE,12.7,17.3,N/A,,Overcast,160,2013-11-20 20:29:00
2:48 PM,37.4,32.0,81,29.92,10.0,SSE,12.7,-,N/A,,Overcast,150,2013-11-20 20:48:00
3:09 PM,37.4,32.0,81,29.91,10.0,SE,10.4,-,N/A,,Overcast,130,2013-11-20 21:09:00
3:29 PM,37.4,32.0,81,29.92,10.0,SSE,11.5,-,N/A,,Overcast,150,2013-11-20 21:29:00
3:48 PM,37.4,32.0,81,29.92,7.0,SSE,11.5,18.4,N/A,,Overcast,150,2013-11-20 21:48:00
4:09 PM,35.6,32.0,87,29.92,7.0,SE,11.5,18.4,N/A,,Overcast,140,2013-11-20 22:09:00
4:28 PM,35.6,32.0,87,29.93,7.0,SE,10.4,17.3,N/A,,Overcast,140,2013-11-20 22:28:00
4:49 PM,35.6,32.0,87,29.93,7.0,SE,10.4,-,N/A,,Overcast,140,2013-11-20 22:49:00
5:09 PM,35.6,32.0,87,29.94,7.0,SE,9.2,-,N/A,,Overcast,140,2013-11-20 23:09:00
5:28 PM,35.6,32.0,87,29.95,7.0,SE,8.1,-,N/A,,Overcast,140,2013-11-20 23:28:00
5:49 PM,35.6,32.0,87,29.95,7.0,SE,6.9,-,N/A,,Overcast,130,2013-11-20 23:49:00
6:09 PM,35.6,32.0,87,29.96,7.0,SE,6.9,-,N/A,,Overcast,130,2013-11-21 00:09:00
6:28 PM,35.6,32.0,87,29.96,7.0,SSE,6.9,-,N/A,,Overcast,150,2013-11-21 00:28:00
6:49 PM,35.6,32.0,87,29.97,5.0,SE,5.8,-,N/A,,Overcast,140,2013-11-21 00:49:00
7:08 PM,35.6,32.0,87,29.97,5.0,SSE,4.6,-,N/A,,Overcast,150,2013-11-21 01:08:00
7:29 PM,35.6,33.8,93,29.98,5.0,SSE,4.6,-,N/A,,Overcast,150,2013-11-21 01:29:00
7:49 PM,35.6,33.8,93,29.98,5.0,SSE,5.8,-,N/A,,Overcast,160,2013-11-21 01:49:00
8:09 PM,35.6,33.8,93,29.99,5.0,SSE,5.8,-,N/A,,Overcast,150,2013-11-21 02:09:00
8:29 PM,35.6,33.8,93,29.99,5.0,SSE,4.6,-,N/A,,Overcast,150,2013-11-21 02:29:00
8:48 PM,35.6,33.8,93,29.99,4.0,SSE,5.8,-,N/A,,Overcast,160,2013-11-21 02:48:00
9:09 PM,35.6,33.8,93,29.99,4.0,SSE,5.8,-,N/A,,Overcast,160,2013-11-21 03:09:00
9:28 PM,35.6,33.8,93,30.00,4.0,SSE,4.6,-,N/A,,Overcast,160,2013-11-21 03:28:00
9:49 PM,35.6,33.8,93,30.00,4.0,Calm,Calm,-,N/A,,Mist,0,2013-11-21 03:49:00
10:09 PM,35.6,33.8,93,30.01,3.0,SE,3.5,-,N/A,,Overcast,140,2013-11-21 04:09:00
10:28 PM,35.6,33.8,93,30.01,3.0,SSE,3.5,-,N/A,,Overcast,150,2013-11-21 04:28:00
10:49 PM,35.6,33.8,93,30.02,2.5,SE,3.5,-,N/A,,Mist,140,2013-11-21 04:49:00
11:09 PM,35.6,33.8,93,30.02,3.0,SSE,4.6,-,N/A,,Mostly Cloudy,150,2013-11-21 05:09:00
11:28 PM,35.6,33.8,93,30.03,3.0,Calm,Calm,-,N/A,,Mist,0,2013-11-21 05:28:00
11:49 PM,35.6,33.8,93,30.02,3.0,Calm,Calm,-,N/A,,Mist,0,2013-11-21 05:49:00